Location: Cazavet
(43.0017°N, 1.0431°E)
Time: 21:29:14
(UTC+00:00)

GEOS 3 Rocket - Pass Details

Date: 18 January 2026
Orbit: 768 x 845 km, 115.0° (Epoch: 10 February)

Event Time Altitude Azimuth Distance (km) Brightness Sun altitude
Rises 06:31:35 0° 153° (SSE) 3,291 7.5 -9.4°
Reaches altitude 10° 06:33:52 10° 158° (SSE) 2,375 6.7 -9.0°
Maximum altitude 06:38:57 58° 237° (WSW) 947 3.8 -8.1°
Drops below altitude 10° 06:44:11 10° 316° (NW) 2,438 5.5 -7.2°
Enters shadow 06:45:19 - 319° (NW) 2,886 5.9 -7.1°
